Location: *
(47.6569°N, 7.4256°E)
Time: 19:40:07
(UTC+00:00)

SL-4 R/B - Pass Details

Date: 14 December 2019
Orbit: 428 x 667 km, 51.6° (Epoch: 22 January)

Event Time Altitude Azimuth Distance (km) Brightness Sun altitude
Rises 18:20:39 0° 293° (WNW) 2,572 6.4 -26.1°
Reaches altitude 10° 18:22:45 10° 294° (WNW) 1,725 5.3 -26.5°
Enters shadow 18:25:12 38° 298° (WNW) 818 3.2 -26.9°
